TimeCDT,TemperatureF,Dew PointF,Humidity,Sea Level PressureIn,VisibilityMPH,Wind Direction,Wind SpeedMPH,Gust SpeedMPH,PrecipitationIn,Events,Conditions,WindDirDegrees,DateUTC
12:35 AM,51.8,42.8,71,29.94,10.0,West,9.2,-,N/A,,Clear,270,2012-10-31 05:35:00
1:15 AM,51.8,42.8,71,29.95,10.0,WNW,5.8,-,N/A,,Clear,290,2012-10-31 06:15:00
1:35 AM,51.8,42.8,71,29.96,10.0,WNW,4.6,-,N/A,,Clear,290,2012-10-31 06:35:00
1:55 AM,51.8,42.8,71,29.96,10.0,WNW,4.6,-,N/A,,Clear,300,2012-10-31 06:55:00
2:15 AM,51.8,42.8,71,29.97,10.0,NW,4.6,-,N/A,,Clear,320,2012-10-31 07:15:00
2:35 AM,51.8,42.8,71,29.97,10.0,North,6.9,-,N/A,,Clear,360,2012-10-31 07:35:00
2:55 AM,50.0,41.0,71,29.97,10.0,NNW,4.6,-,N/A,,Clear,340,2012-10-31 07:55:00
3:15 AM,48.2,41.0,76,29.98,10.0,NW,5.8,-,N/A,,Clear,320,2012-10-31 08:15:00
3:35 AM,50.0,41.0,71,29.98,10.0,NW,6.9,-,N/A,,Clear,320,2012-10-31 08:35:00
3:55 AM,48.2,41.0,76,29.99,10.0,NNW,6.9,-,N/A,,Clear,340,2012-10-31 08:55:00
4:15 AM,46.4,41.0,81,29.99,10.0,NW,5.8,-,N/A,,Clear,320,2012-10-31 09:15:00
4:35 AM,46.4,41.0,81,29.99,10.0,NW,4.6,-,N/A,,Clear,320,2012-10-31 09:35:00
4:55 AM,44.6,41.0,87,29.99,10.0,NW,6.9,-,N/A,,Clear,320,2012-10-31 09:55:00
5:15 AM,42.8,39.2,87,30.00,10.0,WNW,4.6,-,N/A,,Clear,300,2012-10-31 10:15:00
5:35 AM,41.0,37.4,87,30.00,10.0,NW,5.8,-,N/A,,Clear,310,2012-10-31 10:35:00
5:55 AM,41.0,37.4,87,30.01,10.0,NW,6.9,-,N/A,,Clear,320,2012-10-31 10:55:00
6:15 AM,41.0,37.4,87,30.01,10.0,NW,4.6,-,N/A,,Clear,310,2012-10-31 11:15:00
6:35 AM,41.0,37.4,87,30.02,10.0,NW,5.8,-,N/A,,Clear,320,2012-10-31 11:35:00
6:55 AM,41.0,37.4,87,30.03,10.0,West,5.8,-,N/A,,Clear,280,2012-10-31 11:55:00
7:15 AM,41.0,37.4,87,30.03,10.0,WNW,3.5,-,N/A,,Clear,290,2012-10-31 12:15:00
7:35 AM,41.0,37.4,87,30.04,10.0,WNW,4.6,-,N/A,,Clear,300,2012-10-31 12:35:00
7:55 AM,41.0,37.4,87,30.04,10.0,WNW,5.8,-,N/A,,Clear,300,2012-10-31 12:55:00
8:15 AM,41.0,37.4,87,30.05,7.0,WNW,3.5,-,N/A,,Clear,290,2012-10-31 13:15:00
8:35 AM,41.0,37.4,87,30.06,7.0,WNW,3.5,-,N/A,,Clear,300,2012-10-31 13:35:00
8:55 AM,42.8,41.0,93,30.06,10.0,NW,3.5,-,N/A,,Clear,310,2012-10-31 13:55:00
9:15 AM,46.4,42.8,87,30.07,10.0,NW,3.5,-,N/A,,Clear,320,2012-10-31 14:15:00
9:35 AM,50.0,42.8,76,30.07,10.0,NNW,4.6,-,N/A,,Clear,330,2012-10-31 14:35:00
9:55 AM,51.8,42.8,71,30.08,10.0,NNW,5.8,-,N/A,,Clear,330,2012-10-31 14:55:00
10:15 AM,53.6,42.8,67,30.08,10.0,North,5.8,-,N/A,,Clear,360,2012-10-31 15:15:00
10:35 AM,55.4,42.8,63,30.08,10.0,North,6.9,-,N/A,,Clear,10,2012-10-31 15:35:00
10:55 AM,57.2,42.8,59,30.08,10.0,North,6.9,-,N/A,,Clear,360,2012-10-31 15:55:00
11:15 AM,59.0,42.8,55,30.08,10.0,North,5.8,-,N/A,,Clear,360,2012-10-31 16:15:00
11:35 AM,60.8,42.8,52,30.08,10.0,NNE,6.9,-,N/A,,Clear,20,2012-10-31 16:35:00
11:55 AM,62.6,42.8,48,30.09,10.0,NNE,9.2,-,N/A,,Clear,20,2012-10-31 16:55:00
12:15 PM,62.6,42.8,48,30.08,10.0,NE,10.4,-,N/A,,Clear,40,2012-10-31 17:15:00
12:35 PM,66.2,42.8,43,30.08,10.0,NE,9.2,-,N/A,,Clear,40,2012-10-31 17:35:00
12:55 PM,68.0,44.6,43,30.08,10.0,NNE,11.5,18.4,N/A,,Clear,30,2012-10-31 17:55:00
1:15 PM,68.0,44.6,43,30.08,10.0,NNE,5.8,-,N/A,,Clear,20,2012-10-31 18:15:00
1:35 PM,68.0,44.6,43,30.07,7.0,NE,6.9,-,N/A,,Clear,40,2012-10-31 18:35:00
1:55 PM,68.0,44.6,43,30.06,10.0,NE,6.9,-,N/A,,Clear,50,2012-10-31 18:55:00
2:15 PM,68.0,42.8,40,30.06,10.0,NNE,5.8,-,N/A,,Clear,20,2012-10-31 19:15:00
2:55 PM,69.8,44.6,40,30.04,2.5,North,4.6,-,N/A,,Haze,10,2012-10-31 19:55:00
3:15 PM,71.6,44.6,38,30.03,7.0,NW,3.5,-,N/A,,Clear,310,2012-10-31 20:15:00
3:35 PM,71.6,44.6,38,30.03,7.0,North,3.5,-,N/A,,Clear,360,2012-10-31 20:35:00
3:55 PM,71.6,42.8,35,30.02,10.0,Calm,Calm,-,N/A,,Clear,0,2012-10-31 20:55:00
4:15 PM,71.6,44.6,38,30.02,10.0,Calm,Calm,-,N/A,,Clear,0,2012-10-31 21:15:00
4:35 PM,71.6,44.6,38,30.01,10.0,Calm,Calm,-,N/A,,Clear,0,2012-10-31 21:35:00
4:55 PM,73.4,46.4,38,30.01,10.0,Calm,Calm,-,N/A,,Clear,0,2012-10-31 21:55:00
5:35 PM,71.6,44.6,38,30.01,10.0,Calm,Calm,-,N/A,,Clear,0,2012-10-31 22:35:00
5:55 PM,71.6,44.6,38,30.01,10.0,Calm,Calm,-,N/A,,Clear,0,2012-10-31 22:55:00
6:35 PM,66.2,44.6,46,30.01,10.0,Calm,Calm,-,N/A,,Clear,0,2012-10-31 23:35:00
6:55 PM,66.2,44.6,46,30.01,7.0,Calm,Calm,-,N/A,,Clear,0,2012-10-31 23:55:00
7:35 PM,60.8,42.8,52,30.01,10.0,Calm,Calm,-,N/A,,Clear,0,2012-11-01 00:35:00
7:55 PM,59.0,42.8,55,30.02,10.0,Calm,Calm,-,N/A,,Clear,0,2012-11-01 00:55:00
8:15 PM,59.0,44.6,59,30.02,10.0,Calm,Calm,-,N/A,,Clear,0,2012-11-01 01:15:00
8:35 PM,55.4,44.6,67,30.02,10.0,Calm,Calm,-,N/A,,Clear,0,2012-11-01 01:35:00
8:55 PM,55.4,44.6,67,30.01,10.0,Calm,Calm,-,N/A,,Clear,0,2012-11-01 01:55:00
9:15 PM,55.4,46.4,72,30.01,10.0,SSE,3.5,-,N/A,,Clear,150,2012-11-01 02:15:00
9:35 PM,53.6,46.4,77,30.01,10.0,SSE,3.5,-,N/A,,Clear,150,2012-11-01 02:35:00
9:55 PM,51.8,44.6,76,30.02,10.0,Calm,Calm,-,N/A,,Clear,0,2012-11-01 02:55:00
10:15 PM,51.8,44.6,76,30.02,10.0,Calm,Calm,-,N/A,,Clear,0,2012-11-01 03:15:00
10:35 PM,51.8,46.4,82,30.02,10.0,Calm,Calm,-,N/A,,Clear,0,2012-11-01 03:35:00
10:55 PM,50.0,44.6,82,30.02,10.0,Calm,Calm,-,N/A,,Clear,0,2012-11-01 03:55:00
11:15 PM,48.2,44.6,87,30.01,10.0,Calm,Calm,-,N/A,,Clear,0,2012-11-01 04:15:00
11:35 PM,48.2,42.8,82,30.01,10.0,Calm,Calm,-,N/A,,Clear,0,2012-11-01 04:35:00
11:55 PM,48.2,42.8,82,30.01,10.0,Calm,Calm,-,N/A,,Clear,0,2012-11-01 04:55:00